Date String (YYYY-MM-DD hh:mm:ss) UTC,Instrument flags,Ambient pressure (hPa),Sample flow (lpm),Bypass flow (lpm),Sample temperature (°C),Ambient temperature (°C),ASC tube jacket temperature (°C),LED temperature (°C),Box temperature (°C),Sample RH (%),Span deviation,Mass concentration (μg/m³),Mass concentration (μg/m³),Mass concentration (μg/m³)
DateTimeUTC,F1_M11,P_M11,Q1_M11,Q2_M11,T1_M11,T2_M11,T3_M11,T4_M11,T5_M11,U1_M11,ZSPAN_M11,X0_M11,X2_M11,X1_M11
2021-10-31 02:00:00,,0829.5,4.99,0.00,30.3,29.4,00.0,39.4,32.1,16.5,0000.0,0010.82,0001.82,0001.06
2021-10-31 02:01:00,,0829.3,5.00,0.00,30.3,29.4,00.0,39.4,32.1,16.5,0000.0,0010.90,0001.86,0001.05
2021-10-31 02:02:00,,0829.3,5.00,0.00,30.3,29.4,00.0,39.4,32.1,16.5,0000.0,0011.24,0001.92,0001.07
2021-10-31 02:03:00,,0829.3,5.01,0.00,30.3,29.4,00.0,39.4,32.1,16.5,0000.0,0010.92,0001.91,0001.08
2021-10-31 02:04:00,,0829.3,5.00,0.00,30.3,29.4,00.0,39.4,32.1,16.5,0000.0,0010.63,0001.99,0001.09
2021-10-31 02:05:00,,0829.3,4.99,0.00,30.3,29.4,00.0,39.4,32.1,16.5,0000.0,0010.38,0002.05,0001.10
2021-10-31 02:06:00,,0829.3,5.00,0.00,30.3,29.4,00.0,39.4,32.1,16.5,0000.0,0009.87,0002.08,0001.12
2021-10-31 02:07:00,,0829.3,5.01,0.00,30.3,29.4,00.0,39.4,32.1,16.5,0000.0,0009.58,0002.14,0001.14
2021-10-31 02:08:00,,0829.3,4.99,0.00,30.3,29.4,00.0,39.4,32.1,16.5,0000.0,0009.21,0002.25,0001.15
2021-10-31 02:09:00,,0829.4,5.01,0.00,30.3,29.4,00.0,39.4,32.1,16.5,0000.0,0007.84,0002.25,0001.16
2021-10-31 02:10:00,,0829.4,5.00,0.00,30.3,29.4,00.0,39.4,32.1,16.5,0000.0,0006.71,0002.22,0001.16
2021-10-31 02:11:00,,0829.4,5.00,0.00,30.3,29.4,00.0,39.4,32.1,16.5,0000.0,0007.37,0002.32,0001.15
2021-10-31 02:12:00,,0829.4,5.01,0.00,30.3,29.4,00.0,39.4,32.1,16.5,0000.0,0007.70,0002.36,0001.16
2021-10-31 02:13:00,,0829.4,4.99,0.00,30.3,29.4,00.0,39.4,32.1,16.6,0000.0,0009.03,0002.38,0001.17
2021-10-31 02:14:00,,0829.4,4.99,0.00,30.3,29.4,00.0,39.4,32.1,16.5,0000.0,0009.73,0002.42,0001.18
2021-10-31 02:15:00,,0829.4,5.01,0.00,30.3,29.4,00.0,39.4,32.1,16.6,0000.0,0009.64,0002.33,0001.17
2021-10-31 02:16:00,,0829.4,5.00,0.00,30.3,29.4,00.0,39.4,32.1,16.6,0000.0,0010.22,0002.34,0001.18
2021-10-31 02:17:00,,0829.4,5.01,0.00,30.3,29.4,00.0,39.4,32.1,16.5,0000.0,0010.27,0002.34,0001.17
2021-10-31 02:18:00,,0829.4,5.01,0.00,30.3,29.4,00.0,39.4,32.1,16.6,0000.0,0010.25,0002.38,0001.15
2021-10-31 02:19:00,,0829.4,4.99,0.00,30.3,29.4,00.0,39.4,32.1,16.6,0000.0,0010.55,0002.34,0001.14
2021-10-31 02:20:00,,0829.4,5.01,0.00,30.4,29.4,00.0,39.4,32.1,16.6,0000.0,0011.19,0002.31,0001.13
2021-10-31 02:21:00,,0829.4,5.00,0.00,30.4,29.4,00.0,39.4,32.1,16.6,0000.0,0011.15,0002.34,0001.13
2021-10-31 02:22:00,,0829.4,5.00,0.00,30.4,29.4,00.0,39.4,32.1,16.6,0000.0,0010.76,0002.29,0001.12
2021-10-31 02:23:00,,0829.4,4.99,0.00,30.4,29.4,00.0,39.4,32.1,16.6,0000.0,0010.59,0002.27,0001.13
2021-10-31 02:24:00,,0829.3,5.00,0.00,30.4,29.4,00.0,39.4,32.1,16.6,0000.0,0009.03,0002.19,0001.12
2021-10-31 02:25:00,,0829.4,5.01,0.00,30.4,29.4,00.0,39.4,32.1,16.6,0000.0,0009.23,0002.18,0001.12
2021-10-31 02:26:00,,0829.4,5.00,0.00,30.4,29.4,00.0,39.4,32.1,16.6,0000.0,0009.44,0002.28,0001.13
2021-10-31 02:27:00,,0829.4,5.00,0.00,30.4,29.4,00.0,39.4,32.1,16.6,0000.0,0008.84,0002.21,0001.13
2021-10-31 02:28:00,,0829.5,5.00,0.00,30.4,29.4,00.0,39.4,32.1,16.6,0000.0,0008.79,0002.19,0001.14
2021-10-31 02:29:00,,0829.5,4.99,0.00,30.4,29.4,00.0,39.4,32.1,16.6,0000.0,0008.74,0002.21,0001.15
2021-10-31 02:30:00,,0829.5,5.00,0.00,30.4,29.4,00.0,39.4,32.1,16.6,0000.0,0008.16,0002.23,0001.16
2021-10-31 02:31:00,,0829.5,5.00,0.00,30.4,29.4,00.0,39.4,32.1,16.6,0000.0,0007.56,0002.26,0001.19
2021-10-31 02:32:00,,0829.5,4.99,0.00,30.4,29.4,00.0,39.4,32.1,16.6,0000.0,0007.97,0002.27,0001.20
2021-10-31 02:33:00,,0829.5,5.01,0.00,30.4,29.5,00.0,39.4,32.1,16.5,0000.0,0008.48,0002.26,0001.21
2021-10-31 02:34:00,,0829.5,5.00,0.00,30.4,29.4,00.0,39.4,32.1,16.5,0000.0,0008.59,0002.26,0001.21
2021-10-31 02:35:00,,0829.5,5.00,0.00,30.4,29.4,00.0,39.4,32.1,16.5,0000.0,0008.99,0002.29,0001.20
2021-10-31 02:36:00,,0829.5,5.01,0.00,30.4,29.4,00.0,39.4,32.1,16.6,0000.0,0008.34,0002.28,0001.20
2021-10-31 02:37:00,,0829.6,5.01,0.00,30.4,29.4,00.0,39.4,32.1,16.6,0000.0,0008.48,0002.24,0001.19
2021-10-31 02:38:00,,0829.5,4.99,0.00,30.4,29.4,00.0,39.4,32.1,16.6,0000.0,0008.41,0002.25,0001.18
2021-10-31 02:39:00,,0829.5,5.01,0.00,30.4,29.4,00.0,39.4,32.1,16.6,0000.0,0008.77,0002.24,0001.17
2021-10-31 02:40:00,,0829.5,4.99,0.00,30.4,29.4,00.0,39.4,32.1,16.5,0000.0,0009.38,0002.16,0001.15
2021-10-31 02:41:00,,0829.5,5.01,0.00,30.4,29.4,00.0,39.4,32.1,16.5,0000.0,0009.60,0002.11,0001.14
2021-10-31 02:42:00,,0829.5,5.00,0.00,30.4,29.4,00.0,39.4,32.1,16.5,0000.0,0009.76,0002.04,0001.12
2021-10-31 02:43:00,,0829.5,5.00,0.00,30.4,29.4,00.0,39.4,32.1,16.5,0000.0,0009.63,0002.02,0001.09
2021-10-31 02:44:00,,0829.5,5.00,0.00,30.4,29.4,00.0,39.4,32.1,16.5,0000.0,0009.15,0002.02,0001.08
2021-10-31 02:45:00,,0829.5,4.99,0.00,30.4,29.4,00.0,39.4,32.1,16.5,0000.0,0009.85,0002.04,0001.09
2021-10-31 02:46:00,,0829.5,5.01,0.00,30.4,29.4,00.0,39.4,32.1,16.5,0000.0,0009.70,0002.05,0001.09
2021-10-31 02:47:00,,0829.5,5.00,0.00,30.4,29.4,00.0,39.4,32.1,16.5,0000.0,0009.65,0002.06,0001.09
2021-10-31 02:48:00,,0829.5,5.00,0.00,30.4,29.4,00.0,39.4,32.1,16.5,0000.0,0010.80,0002.06,0001.09
2021-10-31 02:49:00,,0829.5,5.02,0.00,30.4,29.4,00.0,39.4,32.1,16.5,0000.0,0011.21,0002.14,0001.09
2021-10-31 02:50:00,,0829.5,5.00,0.00,30.4,29.4,00.0,39.4,32.1,16.5,0000.0,0011.29,0002.17,0001.09
2021-10-31 02:51:00,,0829.5,4.99,0.00,30.4,29.4,00.0,39.4,32.1,16.5,0000.0,0010.48,0002.18,0001.09
2021-10-31 02:52:00,,0829.5,5.00,0.00,30.4,29.4,00.0,39.4,32.1,16.5,0000.0,0010.47,0002.20,0001.10
2021-10-31 02:53:00,,0829.5,5.00,0.00,30.4,29.4,00.0,39.4,32.1,16.5,0000.0,0010.15,0002.25,0001.10
2021-10-31 02:54:00,,0829.6,5.00,0.00,30.4,29.4,00.0,39.4,32.1,16.5,0000.0,0009.99,0002.26,0001.13
2021-10-31 02:55:00,,0829.5,5.01,0.00,30.4,29.4,00.0,39.4,32.1,16.5,0000.0,0010.80,0002.27,0001.15
2021-10-31 02:56:00,,0829.5,5.01,0.00,30.4,29.4,00.0,39.4,32.1,16.5,0000.0,0010.55,0002.30,0001.17
2021-10-31 02:57:00,,0829.6,4.99,0.00,30.4,29.4,00.0,39.4,32.1,16.5,0000.0,0010.29,0002.30,0001.18
2021-10-31 02:58:00,,0829.5,5.01,0.00,30.4,29.4,00.0,39.4,32.1,16.5,0000.0,0009.99,0002.31,0001.18
2021-10-31 02:59:00,,0829.5,5.00,0.00,30.4,29.4,00.0,39.4,32.1,16.5,0000.0,0008.60,0002.37,0001.19
